FW7196 Weather Reports


time (UTC)temp
C
wind
direction
speed
KPH
gust
KPH
rain 1hr
cm
rain 24hr
cm
rain mn
cm
humidity
%
barometer
mb
20260505234536 15 0 0.0 0.0 0.00 0.25 0.25 92 1007.1
20260505233035 15 0 0.0 0.0 0.00 0.25 0.25 92 1007.1
20260505231535 15 0 0.0 0.0 0.00 0.25 0.25 91 1006.7
20260505230046 15 0 0.0 0.0 0.00 0.25 0.25 89 1006.4
20260505224537 15 0 0.0 6.4 0.00 0.25 0.25 86 1006.0
20260505223036 15 126 3.2 8.0 0.00 0.25 0.25 85 1006.5
20260505221536 15 68 0.0 6.4 0.08 0.25 0.25 88 1006.0
20260505220041 15 0 0.0 6.4 0.13 0.25 0.25 90 1005.6
20260505214536 15 0 0.0 1.6 0.25 0.25 0.25 91 1005.1
20260505213043 15 0 0.0 14.5 0.25 0.25 0.25 86 1005.2
20260505211541 16 10 1.6 19.3 0.18 0.18 0.18 81 1006.3
20260505210036 18 109 3.2 22.5 0.10 0.10 0.10 73 1006.2
20260505204537 25 335 4.8 24.1 0.00 0.00 0.00 36 1004.2
20260505203041 25 141 3.2 12.9 0.00 0.00 0.00 35 1002.6
20260505201537 25 147 3.2 25.7 0.00 0.00 0.00 34 1002.7
20260505200038 26 215 4.8 29.0 0.00 0.00 0.00 32 1002.6
20260505194535 26 49 4.8 19.3 0.00 0.00 0.00 32 1002.6
20260505193052 26 189 6.4 25.7 0.00 0.00 0.00 32 1002.7
20260505191540 26 107 4.8 20.9 0.00 0.00 0.00 31 1002.9
20260505190042 26 162 3.2 19.3 0.00 0.00 0.00 32 1003.2
20260505184535 25 198 4.8 19.3 0.00 0.00 0.00 33 1003.2
20260505183036 25 46 3.2 17.7 0.00 0.00 0.00 33 1003.4
20260505181536 26 101 1.6 24.1 0.00 0.00 0.00 33 1003.7
20260505180040 25 164 6.4 16.1 0.00 0.00 0.00 34 1003.9
20260505174538 25 94 4.8 24.1 0.00 0.00 0.00 36 1004.4
20260505173035 25 159 4.8 20.9 0.00 0.00 0.00 34 1004.4
20260505171540 26 60 3.2 14.5 0.00 0.00 0.00 38 1004.5
20260505170038 25 72 4.8 17.7 0.00 0.00 0.00 40 1004.7
20260505164540 25 140 4.8 16.1 0.00 0.00 0.00 41 1004.9
20260505163041 24 99 6.4 20.9 0.00 0.00 0.00 42 1005.3
20260505161536 23 159 3.2 16.1 0.00 0.00 0.00 44 1005.6
20260505153043 22 171 3.2 14.5 0.00 0.00 0.00 49 1006.7
20260505151538 21 37 3.2 16.1 0.00 0.00 0.00 52 1007.1
20260505124540 13 147 4.8 14.5 0.00 0.00 0.00 69 1007.0
20260505123048 12 105 1.6 12.9 0.00 0.00 0.00 68 1007.0
20260505121537 12 153 3.2 16.1 0.00 0.00 0.00 68 1007.2
20260505120043 12 148 1.6 17.7 0.00 0.00 0.00 69 1007.3
20260505114534 12 107 4.8 14.5 0.00 0.00 0.00 70 1007.5
20260505113034 11 133 4.8 14.5 0.00 0.00 0.00 72 1007.5
20260505111536 11 115 1.6 9.7 0.00 0.00 0.00 73 1007.4
20260505101536 10 99 1.6 8.0 0.00 0.00 0.00 75 1006.9
20260505100038 9 74 1.6 4.8 0.00 0.00 0.00 75 1006.9
20260505095208 10 109 0.0 0.0 0.00 0.00 0.00 75 1006.9
20260505094539 10 0 0.0 3.2 0.00 0.00 0.00 75 1006.9
20260505093036 10 0 1.6 3.2 0.00 0.00 0.00 74 1006.9
20260505091538 10 0 0.0 6.4 0.00 0.00 0.00 73 1007.1
20260505090034 10 0 0.0 11.3 0.00 0.00 0.00 73 1007.3
20260505084555 10 0 0.0 3.2 0.00 0.00 0.00 72 1007.2
20260505083057 10 119 1.6 4.8 0.00 0.00 0.00 72 1007.1
20260505081553 10 0 0.0 3.2 0.00 0.00 0.00 71 1007.3
20260505080044 11 0 0.0 4.8 0.00 0.00 0.00 70 1007.2
20260505074535 11 0 0.0 3.2 0.00 0.00 0.00 68 1007.2
20260505073048 11 56 0.0 3.2 0.00 0.00 0.00 67 1007.2
20260505071545 11 159 1.6 4.8 0.00 0.00 0.00 67 1007.5
20260505070043 11 114 3.2 19.3 0.00 0.00 0.00 68 1007.3
20260505064536 11 120 3.2 8.0 0.00 0.00 0.00 68 1007.4
20260505063040 11 144 1.6 6.4 0.00 0.00 0.00 67 1007.5
20260505061535 11 122 3.2 9.7 0.00 0.00 0.00 67 1007.6
20260505060053 11 98 1.6 9.7 0.00 0.00 0.00 67 1007.7
20260505054537 11 0 1.6 6.4 0.00 0.00 0.00 67 1007.5
20260505053038 11 124 1.6 8.0 0.00 0.00 0.00 66 1007.6
20260505051535 11 157 1.6 8.0 0.00 0.00 0.00 66 1007.8
20260505041549 12 136 1.6 12.9 0.00 0.00 0.00 62 1007.7
20260505040041 12 0 1.6 8.0 0.00 0.00 0.00 61 1007.7
20260505040027 13 139 1.6 1.6 0.00 0.00 0.00 61 1007.7
20260505034537 12 0 1.6 6.4 0.00 0.00 0.00 60 1007.4
20260505033037 12 0 0.0 4.8 0.00 0.00 0.00 59 1007.4
20260505031536 12 116 1.6 4.8 0.00 0.00 0.00 61 1007.4
20260505030044 11 0 0.0 3.2 0.00 0.00 0.00 65 1007.3
20260505024534 11 0 0.0 0.0 0.00 0.00 0.00 66 1007.2
20260505023109 11 0 0.0 0.0 0.00 0.00 0.00 68 1007.2
20260505021537 10 0 0.0 0.0 0.00 0.00 0.00 69 1007.2
20260505020040 11 0 0.0 0.0 0.00 0.00 0.00 69 1007.2
20260505014559 11 0 0.0 0.0 0.00 0.00 0.00 69 1007.1
20260505013046 11 0 0.0 0.0 0.00 0.00 0.00 67 1007.1
20260505011540 12 0 0.0 0.0 0.00 0.00 0.00 64 1007.1
20260505010051 13 0 0.0 0.0 0.00 0.00 0.00 61 1007.0
20260505004546 13 0 0.0 0.0 0.00 0.00 0.00 58 1006.8
20260505003052 14 0 0.0 0.0 0.00 0.00 0.00 55 1006.6
20260505001537 15 0 0.0 0.0 0.00 0.00 0.00 52 1006.3
20260505000037 15 0 0.0 1.6 0.00 0.00 0.00 51 1006.2